Weather History for KAPA - January, 2013

Change the Weather History Date:

Wednesday, January 30, 2013

  Actual Average Record
Temperature  
Mean Temperature 22 °F -  
Max Temperature 37 °F 41 °F 64 °F (1997)
Min Temperature 6 °F 20 °F 6 °F (2013)
Degree Days  
Heating Degree Days 43    
Month to date heating degree days 1024  
Moisture  
Dew Point 9 °F    
Average Humidity 62    
Maximum Humidity 91    
Minimum Humidity 33    
Precipitation  
Precipitation T in - - ()
Month to date precipitation 0.13  
Year to date precipitation 0.13  
Sea Level Pressure  
Sea Level Pressure 29.97 in    
Wind  
Wind Speed 9 mph (WNW)    
Max Wind Speed 29 mph    
Max Gust Speed 38 mph    
Visibility 10 miles    
Events      
Averages and records for this station are not official NWS values.
T = Trace of Precipitation, MM = Missing Value Source: NWS Daily Summary

Daily Weather History Graph

Daily Weather History Graph

Search for Another Location

Airport or City:

Trip Planner

Search our weather history database for the weather conditions in past years. The results will help you decide how hot, cold, wet, or windy it might be!

Date:

Astronomy

Jan. 30, 2013 Rise Set
Actual Time 7:08 AM MST 5:17 PM MST
Civil Twilight 6:39 AM MST 5:46 PM MST
Nautical Twilight 6:07 AM MST 6:18 PM MST
Astronomical Twilight 5:36 AM MST 6:50 PM MST
Moon 9:17 PM MST (1/30) 8:38 AM MST (1/30)
Length of Visible Light 11h 06m
Length of Day
10h 09m
Waning Gibbous, 87% of the Moon is Illuminated
Jan 30
Waning Gibbous
Feb 3
Last Quarter
Feb 10
New
Feb 17
First Quarter
Feb 25
Full

Hourly Weather History & Observations

Time (MST) Temp. Windchill Dew Point Humidity Pressure Visibility Wind Dir Wind Speed Gust Speed Precip Events Conditions
12:26 AM 15.8 °F 10.2 °F 10.4 °F 79% 29.90 in 6.0 mi North 3.5 mph - 0.00 in   Haze
12:53 AM 14.0 °F 8.2 °F 10.0 °F 84% 30.06 in 10.0 mi North 3.5 mph - 0.00 in   Partly Cloudy
1:53 AM 12.9 °F 6.9 °F 9.0 °F 84% 30.06 in 10.0 mi East 3.5 mph - N/A   Partly Cloudy
2:53 AM 7.0 °F -3.3 °F 5.0 °F 92% 30.06 in 10.0 mi South 5.8 mph - N/A   Partly Cloudy
3:53 AM 10.0 °F 0.4 °F 7.0 °F 87% 30.04 in 10.0 mi SW 5.8 mph - N/A   Partly Cloudy
4:53 AM 14.0 °F 2.9 °F 3.9 °F 64% 30.02 in 10.0 mi West 8.1 mph - N/A   Partly Cloudy
5:53 AM 10.9 °F -0.8 °F 1.9 °F 67% 30.02 in 10.0 mi WSW 8.1 mph - N/A   Partly Cloudy
6:53 AM 12.0 °F 0.5 °F 5.0 °F 73% 30.02 in 10.0 mi South 8.1 mph - N/A   Mostly Cloudy
7:53 AM 19.9 °F 10.1 °F 3.0 °F 48% 29.98 in 10.0 mi WSW 8.1 mph - N/A   Mostly Cloudy
8:53 AM 23.0 °F 13.9 °F 3.9 °F 44% 29.92 in 10.0 mi WSW 8.1 mph - N/A   Mostly Cloudy
9:53 AM 28.9 °F 19.2 °F 6.1 °F 38% 29.92 in 10.0 mi West 11.5 mph - N/A   Scattered Clouds
10:53 AM 32.0 °F 19.8 °F 7.0 °F 35% 29.91 in 10.0 mi WNW 20.7 mph 31.1 mph N/A   Mostly Cloudy
11:53 AM 34.0 °F 22.7 °F 10.0 °F 37% 29.90 in 10.0 mi NNW 19.6 mph 27.6 mph N/A   Mostly Cloudy
12:53 PM 34.0 °F 21.5 °F 12.0 °F 40% 29.92 in 10.0 mi NW 24.2 mph 38.0 mph N/A   Mostly Cloudy
1:53 PM 36.0 °F 24.7 °F 12.0 °F 37% 29.91 in 10.0 mi NW 21.9 mph 33.4 mph N/A   Mostly Cloudy
2:53 PM 36.0 °F 23.9 °F 12.0 °F 37% 29.94 in 10.0 mi NW 25.3 mph 35.7 mph N/A   Mostly Cloudy
3:53 PM 35.1 °F 24.8 °F 12.0 °F 39% 29.94 in 10.0 mi NW 17.3 mph 29.9 mph N/A   Mostly Cloudy
4:53 PM 34.0 °F 22.7 °F 12.0 °F 40% 29.94 in 10.0 mi NNW 19.6 mph 27.6 mph N/A   Mostly Cloudy
5:53 PM 34.0 °F 25.0 °F 12.0 °F 40% 29.97 in 10.0 mi North 12.7 mph 25.3 mph N/A   Mostly Cloudy
6:53 PM 33.1 °F 28.7 °F 12.0 °F 42% 29.99 in 10.0 mi NNW 4.6 mph - N/A   Mostly Cloudy
7:53 PM 34.0 °F 26.0 °F 12.0 °F 40% 29.96 in 10.0 mi West 10.4 mph - N/A   Mostly Cloudy
8:53 PM 30.9 °F 26.2 °F 12.0 °F 46% 29.97 in 10.0 mi WNW 4.6 mph - N/A   Scattered Clouds
9:53 PM 25.0 °F 18.1 °F 12.9 °F 60% 29.96 in 10.0 mi South 5.8 mph - N/A   Mostly Cloudy
10:53 PM 25.0 °F 18.1 °F 12.0 °F 58% 29.96 in 10.0 mi SSW 5.8 mph - N/A   Scattered Clouds
11:53 PM 21.9 °F 14.5 °F 12.0 °F 66% 29.98 in 10.0 mi ESE 5.8 mph - N/A   Partly Cloudy